Location: Bothwell
(42.3833°S, 147.0000°E)
Time: 20:15:33
(UTC+10:00)

Envisat - Pass Details

Date: 23 February 2024
Orbit: 762 x 764 km, 98.3° (Epoch: 22 April)

Event Time Altitude Azimuth Distance (km) Brightness Sun altitude
Exits shadow 04:35:46 31° 252° (WSW) 1,337 3.9 -21.8°
Drops below altitude 10° 04:39:23 10° 212° (SSW) 2,331 5.6 -21.3°
Sets 04:41:56 0° 202° (SSW) 3,265 6.5 -20.9°
